EW6230 Weather Reports


Display with metric or nautical units.
time (UTC)temp
F
wind
direction
speed
MPH
gust
MPH
rain 1hr
in
rain 24hr
in
rain mn
in
humidity
%
barometer
mb
20260906040034 56 84 0.0 0.0 0.00 0.00 0.00 11 1014.1
20260906034530 57 84 0.0 0.0 0.00 0.00 0.00 8 1014.3
20260906033037 57 84 0.0 0.0 0.00 0.00 0.00 15 1014.2
20260906031523 58 84 0.0 0.0 0.00 0.00 0.00 19 1014.1
20260906030016 58 84 0.0 0.0 0.00 0.00 0.00 20 1014.2
20260906024511 58 84 0.0 0.0 0.00 0.00 0.00 23 1014.1
20260906023007 58 84 0.0 0.0 0.00 0.00 0.00 26 1013.9
20260906021503 59 85 0.0 0.0 0.00 0.00 0.00 26 1013.9
20260906020104 59 84 0.0 0.0 0.00 0.00 0.00 30 1014.0
20260906014554 59 84 0.0 0.0 0.00 0.00 0.00 33 1013.9
20260906013050 60 85 0.0 0.0 0.00 0.00 0.00 39 1013.8
20260906011547 61 85 0.0 0.0 0.00 0.00 0.00 50 1013.7
20260906010042 63 84 0.0 0.0 0.00 0.00 0.00 60 1013.6
20260906004537 64 84 0.0 0.0 0.00 0.00 0.00 63 1013.5
20260906003032 64 84 0.0 0.0 0.00 0.00 0.00 63 1013.3
20260906001529 65 84 0.0 0.0 0.00 0.00 0.00 63 1013.2
20260906000024 67 85 0.0 1.0 0.00 0.00 0.00 62 1013.1
20260905234519 69 100 0.0 2.0 0.00 0.00 0.00 59 1013.0
20260905233015 69 350 0.0 1.0 0.00 0.00 0.00 60 1013.1
20260905231511 69 352 0.0 1.0 0.00 0.00 0.00 61 1013.1
20260905230006 70 352 0.0 1.0 0.00 0.00 0.00 60 1013.1
20260905224504 71 224 0.0 1.0 0.00 0.00 0.00 58 1013.1
20260905223059 69 122 0.0 2.0 0.00 0.00 0.00 60 1013.2
20260905221601 68 304 0.0 3.0 0.00 0.00 0.00 62 1013.3
20260905214545 67 77 0.0 1.0 0.00 0.00 0.00 62 1013.6
20260905213040 66 77 0.0 0.0 0.00 0.00 0.00 63 1013.7
20260905211534 65 77 0.0 0.0 0.00 0.00 0.00 63 1014.0
20260905210031 67 78 0.0 1.0 0.00 0.00 0.00 62 1014.0
20260905204527 69 13 0.0 1.0 0.00 0.00 0.00 62 1014.0
20260905203023 67 345 0.0 1.0 0.00 0.00 0.00 62 1014.1
20260905201518 69 357 0.0 1.0 0.00 0.00 0.00 61 1014.0
20260905200013 68 338 0.0 1.0 0.00 0.00 0.00 62 1013.9
20260905194509 68 340 0.0 1.0 0.00 0.00 0.00 62 1014.0
20260905193007 67 77 0.0 1.0 0.00 0.00 0.00 62 1014.0
20260905191600 65 82 0.0 1.0 0.00 0.00 0.00 61 1014.1
20260905190056 67 188 0.0 0.0 0.00 0.00 0.00 62 1014.3
20260905184555 66 150 0.0 0.0 0.00 0.00 0.00 61 1014.4
20260905183050 65 151 0.0 0.0 0.00 0.00 0.00 56 1014.5
20260905181601 63 149 0.0 0.0 0.00 0.00 0.00 43 1014.5
20260905180037 62 150 0.0 0.0 0.00 0.00 0.00 29 1014.6
20260905174541 61 150 0.0 0.0 0.00 0.00 0.00 22 1014.6
20260905173032 60 89 0.0 0.0 0.00 0.00 0.00 11 1014.6
20260905171535 59 89 0.0 0.0 0.00 0.00 0.00 6 1014.6
20260905170019 59 89 0.0 0.0 0.00 0.00 0.00 11 1014.6
20260905164510 60 88 0.0 0.0 0.00 0.00 0.00 19 1014.5
20260905163006 59 88 0.0 0.0 0.00 0.00 0.00 14 1014.3
20260905161501 59 88 0.0 0.0 0.00 0.00 0.00 14 1014.3
20260905160132 59 89 0.0 0.0 0.00 0.00 0.00 17 1014.5
20260905154552 58 89 0.0 0.0 0.00 0.00 0.00 15 1014.5
20260905153048 58 89 0.0 0.0 0.00 0.00 0.00 1 1014.5
20260905151545 56 88 0.0 0.0 0.00 0.00 0.00 1 1014.4
20260905150038 54 87 0.0 0.0 0.00 0.00 0.00 1 1014.3
20260905144535 54 87 0.0 0.0 0.00 0.00 0.00 1 1014.2
20260905143030 53 87 0.0 0.0 0.00 0.00 0.00 1 1014.2
20260905141526 0 0.0 0.0 0.00 0.00 0.00 1014.0
20260905140021 0 0.0 0.0 0.00 0.00 0.00 1014.0
20260905134516 0 0.0 0.0 0.00 0.00 0.00 1014.0
20260905133012 0 0.0 0.0 0.00 0.00 0.00 1014.0
20260905131508 0 0.0 0.0 0.00 0.00 0.00 1013.9
20260905130004 0 0.0 0.0 0.00 0.00 0.00 1014.0
20260905124601 0 0.0 0.0 0.00 0.00 0.00 1013.7
20260905123056 0 0.0 0.0 0.00 0.00 0.00 1013.7
20260905121552 51 87 0.0 0.0 0.00 0.00 0.00 1 1013.7
20260905120055 51 87 0.0 0.0 0.00 0.00 0.00 1 1013.6
20260905114542 51 87 0.0 0.0 0.00 0.00 0.00 1 1013.5
20260905113038 51 87 0.0 0.0 0.00 0.00 0.00 1 1013.4
20260905111534 51 87 0.0 0.0 0.00 0.00 0.00 1 1013.4
20260905110029 51 87 0.0 0.0 0.00 0.00 0.00 1 1013.4
20260905104525 52 87 0.0 0.0 0.00 0.00 0.00 1 1013.4
20260905103025 52 87 0.0 0.0 0.00 0.00 0.00 1 1013.4
20260905101517 52 87 0.0 0.0 0.00 0.00 0.00 1 1013.4
20260905100012 53 87 0.0 0.0 0.00 0.00 0.00 1 1013.4
20260905094510 53 87 0.0 0.0 0.00 0.00 0.00 1 1013.6
20260905093004 53 87 0.0 0.0 0.00 0.00 0.00 1 1013.6
20260905091622 53 87 0.0 0.0 0.00 0.00 0.00 1 1013.5
20260905090117 53 87 0.0 0.0 0.00 0.00 0.00 1 1013.3
20260905084600 53 87 0.0 0.0 0.00 0.00 0.00 1 1013.3
20260905083047 53 87 0.0 0.0 0.00 0.00 0.00 1 1013.2
20260905081543 53 87 0.0 0.0 0.00 0.00 0.00 1 1013.1
20260905080048 53 87 0.0 0.0 0.00 0.00 0.00 1 1013.2
20260905074534 53 87 0.0 0.0 0.00 0.00 0.00 1 1013.1
20260905073028 53 87 0.0 0.0 0.00 0.00 0.00 1 1013.1
20260905071524 53 87 0.0 0.0 0.00 0.00 0.00 1 1013.0
20260905070023 53 87 0.0 0.0 0.00 0.00 0.00 1 1012.9
20260905064518 53 87 0.0 0.0 0.00 0.00 0.00 1 1012.8
20260905063011 53 87 0.0 0.0 0.00 0.00 0.00 1 1012.7
20260905061507 53 87 0.0 0.0 0.00 0.00 0.00 1 1012.6
20260905060003 53 87 0.0 0.0 0.00 0.00 0.00 1 1012.7
20260905054559 54 87 0.0 1.0 0.00 0.00 0.00 2 1012.7
20260905053054 54 87 0.0 0.0 0.00 0.00 0.00 4 1012.6
20260905051550 54 87 0.0 0.0 0.00 0.00 0.00 7 1012.6
20260905050045 55 87 0.0 0.0 0.00 0.00 0.00 11 1012.5
20260905044540 55 87 0.0 0.0 0.00 0.00 0.00 9 1012.7
20260905043035 55 87 0.0 0.0 0.00 0.00 0.00 13 1012.7
20260905041531 56 87 0.0 0.0 0.00 0.00 0.00 15 1012.6